Regional Weather Roundup
Issued by NWS

Home | Current Version | Previous Version | Graphics & Text | Print | Product List | Glossary On
Versions: 1 2 3 4 5 6 7 8 9 10 11 12 13 14 15 16 17 18 19 20 21 22 23 24 25 26 27 28 29 30 31 32 33 34 35 36 37 38 39 40 41 42 43 44 45 46 47 48 49 50
000
ASUS45 KABQ 090001
RWRNM
NEW MEXICO REGIONAL WEATHER ROUNDUP
NATIONAL WEATHER SERVICE ALBUQUERQUE NM
500 PM MST MON FEB 08 2016

NOTE: "FAIR" MEANS FEW OR NO CLOUDS BELOW 12,000 FEET AGL WITH NO
       SIGNIFICANT WEATHER OR OBSTRUCTIONS TO VISION.

      THIS PRODUCT IS RELEASED AS TWO VERSIONS.  ONE VERSION NEAR
      THE TOP OF THE HOUR CONTAINING PRELIMINARY DATA FROM ALBUQUERQUE
      AND OTHER STATIONS.  A FINAL VERSION WITH ADDITIONAL DATA IS
      ISSUED ABOUT 10 MINUTES AFTER THE HOUR.

NMZ501-503-504-510>518-090100-
NORTHWEST PLATEAU/NORTHCENTRAL MOUNTAINS

CITY           SKY/WX    TMP DP  RH WIND       PRES   REMARKS
FARMINGTON     CLEAR     51  24  34 W9        30.38R
6HR MIN TEMP:  35; 6HR MAX TEMP:  52;

SANTA FE       CLEAR     54  15  21 N10       30.33R
6HR MIN TEMP:  45; 6HR MAX TEMP:  57;

TAOS           CLEAR     45  19  36 N12       30.36S

$$
NMZ402-403-502-505>509-090100-
WESTCENTRAL MOUNTAINS/SOUTHWEST MOUNTAINS

CITY           SKY/WX    TMP DP  RH WIND       PRES   REMARKS
GALLUP         CLEAR     53  20  27 E6        30.41S
6HR MIN TEMP:  43; 6HR MAX TEMP:  57;

SILVER CITY      N/A     59  16  18 SE9       30.34R

$$
NMZ407-409-411-412-090100-
SOUTHERN DESERTS

CITY           SKY/WX    TMP DP  RH WIND       PRES   REMARKS
DEMING         CLEAR     63  16  16 SE5       30.29S
6HR MIN TEMP:  56; 6HR MAX TEMP:  64;

HOLLOMAN AFB   CLEAR     58  18  21 W6        30.29S
ALAMOGORDO     CLEAR     59  18  20 S6        30.30F
T OR C         CLEAR     61  14  16 E5        30.30R
6HR MIN TEMP:  52; 6HR MAX TEMP:  63;


$$
NMZ519>523-090100-
CENTRAL VALLEYS/CENTRAL HIGHLANDS

CITY           SKY/WX    TMP DP  RH WIND       PRES   REMARKS
ALBUQUERQUE    PTCLDY    56  19  23 N14       30.33F
6HR MIN TEMP:  47; 6HR MAX TEMP:  59;

DOUBLE EAGLE   PTCLDY    54  21  28 N14       30.35S
CLINES CORNERS CLEAR     48  21  34 E7        30.34S
6HR MIN TEMP:  44; 6HR MAX TEMP:  52;

BELEN          FAIR      58  13  17 NE7       30.33S
6HR MIN TEMP:  48; 6HR MAX TEMP:  61;

SOCORRO        NOT AVBL

$$
NMZ524>526-539-540-090100-
SOUTHCENTRAL MOUNTAINS

CITY           SKY/WX    TMP DP  RH WIND       PRES   REMARKS
RUIDOSO          N/A     46  14  27 SE10      30.37S

$$
NMZ527>531-090100-
NORTHEAST HIGHLANDS/NORTHEAST PLAINS

CITY           SKY/WX    TMP DP  RH WIND       PRES   REMARKS
LAS VEGAS      CLEAR     42  18  37 S9        30.35F
6HR MIN TEMP:  42; 6HR MAX TEMP:  56;

RATON          CLEAR     48  19  31 SW8       30.32R
6HR MIN TEMP:  38; 6HR MAX TEMP:  52;

CLAYTON        CLEAR     45  20  36 N14       30.34R
6HR MIN TEMP:  42; 6HR MAX TEMP:  51;


$$
NMZ532>537-090100-
EASTCENTRAL PLAINS

CITY           SKY/WX    TMP DP  RH WIND       PRES   REMARKS
TUCUMCARI      CLEAR     52  15  23 CALM      30.33S
6HR MIN TEMP:  43; 6HR MAX TEMP:  54;

CANNON AFB     CLEAR     50  15  24 SW1       30.34S
6HR MIN TEMP:  41; 6HR MAX TEMP:  51;

CLOVIS AIRPORT CLEAR     48  18  29 W5        30.36S

$$
NMZ028-029-538-090100-
SOUTHEAST PLAINS

CITY           SKY/WX    TMP DP  RH WIND       PRES   REMARKS
ROSWELL        CLEAR     51  16  24 S7        30.35F
6HR MIN TEMP:  45; 6HR MAX TEMP:  52;

ARTESIA        CLEAR     50  14  23 SE9       30.37S
CARLSBAD       CLEAR     50  13  22 SE9       30.36F
6HR MIN TEMP:  43; 6HR MAX TEMP:  52;

HOBBS          CLEAR     50  10  20 CALM      30.36F


$$



USA.gov is the U.S. government's official web portal to all federal, state and local government web resources and services.